Location: Proctor
(47.8934°N, 114.3048°W)
Time: 11:32:19
(UTC+00:00)

Transit 4A - Pass Details

Date: 26 June 2024
Orbit: 870 x 973 km, 66.8° (Epoch: 13 July)

Event Time Altitude Azimuth Distance (km) Brightness Sun altitude
Rises 07:15:57 0° 262° (W) 3,457 10.9 -18.6°
Reaches altitude 10° 07:18:58 10° 276° (W) 2,520 10.3 -18.6°
Maximum altitude 07:23:29 23° 328° (NNW) 1,786 10.1 -18.7°
Drops below altitude 10° 07:28:03 10° 19° (NNE) 2,540 11.2 -18.7°
Sets 07:31:08 0° 34° (NE) 3,492 11.8 -18.7°
